• MPC Preparation (Info)

  • MPEC 2016-Y27 : 2016 YP

    The following Minor Planet Electronic Circular may be linked-to from your own Web pages, but must not otherwise be redistributed electronically.

    A form allowing access to any MPEC is at the bottom of this page.


    Read MPEC 2016-Y26 Read MPEC 2016-Y28


    M.P.E.C. 2016-Y27                                Issued 2016 Dec. 21, 02:09 UT
    
         The Minor Planet Electronic Circulars contain information on unusual
             minor planets and routine data on comets.  They are published
        on behalf of Division F of the International Astronomical Union by the
              Minor Planet Center, Smithsonian Astrophysical Observatory,
                              Cambridge, MA 02138, U.S.A.
    
                 Prepared using the Tamkin Foundation Computer Network
    
                                  MPC@CFA.HARVARD.EDU
                URL https://www.minorplanetcenter.net/    ISSN 1523-6714
    
                                        2016 YP
    
    Observations:
         K16Y00P* C2016 12 18.27758 03 49 11.26 +09 55 43.1          20.1 VqEY027G96
         K16Y00P  C2016 12 18.28362 03 49 14.15 +09 55 46.8          20.1 VqEY027G96
         K16Y00P  C2016 12 18.28795 03 49 16.31 +09 55 49.4          20.0 VqEY027G96
         K16Y00P  C2016 12 18.29226 03 49 18.36 +09 55 51.4          20.3 VqEY027G96
         K16Y00P  C2016 12 18.32935 03 49 36.31 +09 56 11.9          20.2 VqEY027I52
         K16Y00P  C2016 12 18.33031 03 49 36.80 +09 56 12.0          19.8 VqEY027I52
         K16Y00P  C2016 12 18.33209 03 49 37.65 +09 56 13.2          19.4 VqEY027I52
         K16Y00P  C2016 12 18.34041 03 49 41.70 +09 56 18.0          20.3 VqEY027I52
         K16Y00P  C2016 12 19.11399 03 55 59.08 +10 03 28.4          19.9 VqEY027G96
         K16Y00P  C2016 12 19.11602 03 55 59.98 +10 03 30.4          20.5 VqEY027G96
         K16Y00P  C2016 12 19.11806 03 56 00.89 +10 03 30.5          19.9 VqEY027G96
         K16Y00P  C2016 12 19.12017 03 56 01.85 +10 03 32.1          19.9 VqEY027G96
         K16Y00P  C2016 12 19.17466 03 56 25.82 +10 04 02.5                qEY027I52
         K16Y00P  C2016 12 19.17544 03 56 26.11 +10 04 02.5          20.0 VqEY027I52
         K16Y00P  C2016 12 19.17621 03 56 26.50 +10 04 02.6          20.2 VqEY027I52
         K16Y00P  C2016 12 19.17699 03 56 26.88 +10 04 03.1          19.9 VqEY027I52
         K16Y00P  C2016 12 19.18225003 56 28.94 +10 04 04.3          19.9 GUEY027H01
         K16Y00P  C2016 12 19.18568103 56 30.44 +10 04 06.2          19.8 GUEY027H01
         K16Y00P  C2016 12 19.19837003 56 35.97 +10 04 12.8          19.2 GUEY027H01
         K16Y00P  C2016 12 19.20424403 56 38.55 +10 04 16.2          20.0 GUEY027H01
         K16Y00P KC2016 12 19.21059803 56 40.24 +10 04 13.9          20.3 VuEY027H21
         K16Y00P KC2016 12 19.21330903 56 41.42 +10 04 15.5          20.6 VuEY027H21
         K16Y00P KC2016 12 19.21793803 56 43.45 +10 04 17.9          20.8 VuEY027H21
         K16Y00P KC2016 12 19.26647 03 57 06.49 +10 04 44.5          19.7 RqEY027G58
         K16Y00P KC2016 12 19.27325 03 57 09.44 +10 04 48.5          20.1 RqEY027G58
         K16Y00P KC2016 12 19.27790 03 57 11.41 +10 04 51.1          19.7 RqEY027G58
         K16Y00P KC2016 12 19.94413104 02 02.14 +10 11 27.0          20.2 RtEY027K91
         K16Y00P KC2016 12 19.94760204 02 03.54 +10 11 28.6          19.9 RtEY027K91
         K16Y00P KC2016 12 19.95107504 02 04.95 +10 11 30.2          19.7 RtEY027K91
         K16Y00P KC2016 12 19.95454804 02 06.36 +10 11 31.9          19.5 RtEY027K91
         K16Y00P KC2016 12 20.82825 04 08 02.17 +10 16 54.4          19.7 RoEY027K88
         K16Y00P KC2016 12 20.83236 04 08 03.69 +10 16 56.6          19.1 RoEY027K88
         K16Y00P KC2016 12 20.83647 04 08 05.22 +10 16 58.0          19.8 RoEY027K88
    
    Observer details:
    G58 Chabot Space and Science Center, Oakland.  Observer G. McKeegan.  0.9-m
        f/4.5 Cassegrain + CCD.
    G96 Mt. Lemmon Survey.  Observer G. J. Leonard.  Measurers E. J. Christensen,
        D. C. Fuls, A. R. Gibbs, A. D. Grauer, J. A. Johnson, R. A. Kowalski,
        S. M. Larson, G. J. Leonard, R. G. Matheny, R. L. Seaman, F. C. Shelly.
        1.5-m reflector + 10K CCD.
    H01 Magdalena Ridge Observatory, Socorro.  Observers W. H. Ryan, E. V. Ryan.
        Measurer W. H. Ryan.  2.4-m f/8.9 reflector + CCD.
    H21 Astronomical Research Observatory, Westfield.  Observer R. Holmes.
        Measurers S. Foglia, L. Buzzi, T. Linder, R. Holmes.  0.61-m f/4.5
        astrograph + CCD.
    I52 Steward Observatory, Mt. Lemmon Station.  Observer J. A. Johnson.
        Measurers E. J. Christensen, D. C. Fuls, A. R. Gibbs, A. D. Grauer,
        J. A. Johnson, R. A. Kowalski, S. M. Larson, G. J. Leonard, R. G. Matheny,
        R. L. Seaman, F. C. Shelly.  1.0-m reflector + CCD.
    K88 GINOP-KHK, Piszkesteto.  Observer K. Sarneczky.  0.60-m Schmidt + CCD.
    K91 Sutherland-LCOGT A.  Observers T. Lister, S. Greenstreet, E. Gomez.
        Measurer T. Lister.  1.0-m f/8 Ritchey-Chretien + CCD.
    
    Orbital elements:
    2016 YP                                                  Earth MOID = 0.0092 AU
    Epoch 2017 Feb. 16.0 TT = JDT 2457800.5                 MPC
    M  30.31170              (2000.0)            P               Q
    n   0.28007568     Peri.  127.88960     +0.93867690     -0.33014075
    a   2.3135867      Node   251.58271     +0.27419516     +0.88963318
    e   0.6256107      Incl.    6.01748     +0.20905189     +0.31553112
    P   3.52           H   22.9           G   0.15           U   7
    Residuals in seconds of arc
    161218 G96  0.0   0.1+    161219 G96  0.4+  0.3+    161219 H21  0.1+  0.2+
    161218 G96  0.5-  0.3+    161219 I52  0.3-  0.6+    161219 G58  0.3+  0.5-
    161218 G96  0.5+  0.5+    161219 I52  1.1-  0.2+    161219 G58  0.4+  0.0
    161218 G96  0.1-  0.0     161219 I52  0.3-  0.2-    161219 G58  0.2-  0.3+
    161218 I52  0.2-  0.2-    161219 I52  0.3+  0.1-    161219 K91  0.1-  0.1-
    161218 I52  0.1+  0.6-    161219 H01  0.1+  0.3-    161219 K91  0.1-  0.1-
    161218 I52  0.1-  0.4-    161219 H01  0.1+  0.3-    161219 K91  0.1-  0.0
    161218 I52  0.2+  0.1-    161219 H01  0.1-  0.4-    161219 K91  0.0   0.2+
    161219 G96  0.1+  0.1+    161219 H01  0.2+  0.1-    161220 K88  0.1+  0.1-
    161219 G96  0.0   0.9+    161219 H21  0.1+  0.1-    161220 K88  0.0   0.2+
    161219 G96  0.1+  0.1-    161219 H21  0.0   0.1+    161220 K88  0.1+  0.2-
    
    Ephemeris:
    2016 YP                  a,e,i = 2.31, 0.63, 6                   q = 0.8662
    Date    TT    R. A. (2000) Decl.     Delta      r     Elong.  Phase     V
    2016 11 21    19 42 39.9 -07 55 45   0.1466  0.9192    58.2   114.0    23.0
    ...
    2016 12 06    00 04 20.7 +02 39 20   0.06995 1.0091   108.0    68.2    19.5
    ...
    2016 12 14    03 02 27.6 +08 54 59   0.1036  1.0686   142.8    33.8    19.5
    ...
    2016 12 20    04 02 27.0 +10 11 15   0.1500  1.1169   150.6    25.6    20.2
    2016 12 21    04 09 07.1 +10 18 42   0.1585  1.1252   151.1    25.0    20.3
    2016 12 22    04 15 09.6 +10 25 27   0.1672  1.1335   151.5    24.4    20.4
    ...
    2016 12 28    04 42 07.0 +10 58 05   0.2227  1.1846   151.9    23.0    21.1
    ...
    2017 01 05    05 04 23.8 +11 35 23   0.3039  1.2548   149.6    23.4    21.9
    ...
    2017 01 20    05 31 01.5 +12 44 32   0.4769  1.3899   141.7    26.0    23.2
    
    A. U. Tomatic                (C) Copyright 2016 MPC           M.P.E.C. 2016-Y27
    

    Read MPEC 2016-Y26 Read MPEC 2016-Y28


    MPEC number:

    Enter an MPEC number in one of the following forms:

    • 1997-B01 (the full form)
    • J97B01 (the packed version of the full form)
    • B01 (the abbreviated form)